This is the latest recevied weather packets stored in our database for station/object K4DFD-13. If no packets are shown the sender has not sent any weather packets the latest 10 day(s).
| Time | Temp. | Humidity | Pressure | Rain* | Wind** | Luminosity | Snow |
|---|---|---|---|---|---|---|---|
| 1777312829 | 18.33° C | 52% | 1022.7 hPa | 0 mm | - | - | - |
| 1777312529 | 18.33° C | 52% | 1022.5 hPa | 0 mm | - | - | - |
| 1777312229 | 18.33° C | 52% | 1022.5 hPa | 0 mm | - | - | - |
| 1777311928 | 18.33° C | 52% | 1022.5 hPa | 0 mm | - | - | - |
| 1777311628 | 18.33° C | 52% | 1022.7 hPa | 0 mm | - | - | - |
| 1777311328 | 18.33° C | 51% | 1022.9 hPa | 0 mm | - | - | - |
| 1777311027 | 18.33° C | 53% | 1023 hPa | 0 mm | - | - | - |
| 1777310727 | 18.33° C | 52% | 1023 hPa | 0 mm | - | - | - |
| 1777310426 | 17.78° C | 53% | 1023.1 hPa | 0 mm | - | - | - |
| 1777310126 | 17.78° C | 52% | 1023.2 hPa | 0 mm | - | - | - |
| 1777309826 | 17.22° C | 54% | 1023.2 hPa | 0 mm | - | - | - |
| 1777309525 | 17.22° C | 55% | 1023.4 hPa | 0 mm | - | - | - |
| 1777309225 | 17.22° C | 56% | 1023.3 hPa | 0 mm | - | - | - |
| 1777308924 | 17.22° C | 55% | 1023.3 hPa | 0 mm | - | - | - |
| 1777308624 | 17.22° C | 58% | 1023.3 hPa | 0 mm | - | - | - |
| 1777308324 | 16.67° C | 60% | 1023.3 hPa | 0 mm | - | - | - |
| 1777308023 | 16.67° C | 60% | 1023.3 hPa | 0 mm | - | - | - |
| 1777307723 | 16.67° C | 59% | 1023.3 hPa | 0 mm | - | - | - |
| 1777307423 | 16.11° C | 61% | 1023.2 hPa | 0 mm | - | - | - |
| 1777307123 | 15.56° C | 63% | 1023.2 hPa | 0 mm | - | - | - |
| 1777306822 | 15° C | 66% | 1023.5 hPa | 0 mm | - | - | - |
| 1777306522 | 15° C | 65% | 1023.6 hPa | 0 mm | - | - | - |
| 1777306221 | 14.44° C | 68% | 1023.6 hPa | 0 mm | - | - | - |
| 1777305921 | 14.44° C | 68% | 1023.6 hPa | 0 mm | - | - | - |
| 1777305621 | 14.44° C | 65% | 1023.8 hPa | 0 mm | - | - | - |
* Rain latest hour (hover to see other rain measurements)
** Current wind speed in m/s (hover to see current wind gust speed)